Showing default

COSMOS 2248, 22649

Orbit data source: Space-Track

COSMOS 2248, 22649 is a payload satellite owned by VKS (CIS) in LEO that was launched on Tue, 11 May 1993 UTC via a TSIKLON-3 launch vehicle from the Plesetsk Missile And Space Complex (PKMTR). Payload-class satellites include a variety of spacecraft equipped with specific instruments for various scientific and technological missions. These include communications satellites like Starlink; space stations such as the ISS; scientific satellites like the Hubble; Earth observation satellites from companies like Planet Labs, Umbra, and HawkEye 360; GPS; miniature CubeSats for education and research; and military/defense satellites.

Loading next visibility...
Identifier
22649, 1993-030D
Orbit
LEO
Country
Flag of CISCIS
Related business
Manufacturer
NPO PM
Mission
Defense Communications
Bus & Motor
STRELA-3, Unknown motor
Mass
225 kg wet, 225 kg dry
Launch date (UTC)
1993-05-11 (32 years ago)
Launch vehicle
TSIKLON-3
Launch site
Plesetsk Missile And Space Complex (PKMTR)
Object type
Payload
Rocket body
Debris
Shape & HBR
Cyl, 0.8 m
Radar Cross Section
1.257 m², Medium (>0.1 m² and < 1m²)

Expand to show TLE details & history
Last TLE update: 1 day ago

TLE from 1 day ago
0 COSMOS 2248
1 22649U 93030D   25308.77490029  .00000016  00000-0  26837-4 0  9991
2 22649  82.5754  94.8377 0010051  84.1697 276.0541 12.63515675498070
Epoch: 2025-11-04T18:35Z
TLE epoch observation values (Epoch: 2025-11-04T18:35:51.385Z)
Latitude
0.00007°
Longitude
131.61652°
Altitude
1,410.381 km
Speed
7.156 km/s
True Right ascension
06h 19m 21s
True Declination
0° 00' 00"
Sunlit
Object was in daylight at epoch
Visualization orbit readout
Latitude
Unknown
Longitude
Unknown
Altitude
Unknown
Speed
Unknown
Apparent Right ascension
Unknown
Apparent Declination
Unknown
Sunlit
N/A
Visualization observer readout
Local Sidereal Time
21:48:14
Azimuth
Unknown
Elevation
Unknown
Doppler factor
Unknown
Orbital elements
Apogee altitude
1,413.61 km
Perigee altitude
1,397.962 km
Semi-major axis
7,783.923 km
Eccentricity
0.00101
Inclination
82.5754°
RAAN
94.8377°
Arg. of periapsis
84.1697°
True anomaly
275.93955°
Mean anomaly
276.0541°
Eccentric anomaly
275.99683°
Mean motion
3.16042 °/min
Orbital period
113.91 mins
BSTAR
0.000026837
Loading maneuver chart data...
Computing Atmospheric mass density...
Loading historical data...
Loading historical data...
Loading historical data...
Loading historical data...
Loading historical data...
Loading historical data...
Loading historical data...

Documentation

Showing up to 5 results
|